EW6288 Weather Reports


Display with metric or nautical units.
time (UTC)temp
F
wind
direction
speed
MPH
gust
MPH
rain 1hr
in
rain 24hr
in
rain mn
in
humidity
%
barometer
mb
20260505085958 73 0 1.0 5.0 0.00 0.00 0.00 84 1008.6
20260505085459 73 0 1.0 4.0 0.00 0.00 0.00 84 1008.6
20260505084957 73 0 1.0 4.0 0.00 0.00 0.00 84 1008.6
20260505084457 73 0 1.0 4.0 0.00 0.00 0.00 84 1008.6
20260505083957 73 0 1.0 3.0 0.00 0.00 0.00 84 1008.6
20260505083728 73 0 0.0 3.0 0.00 0.00 0.00 83 1008.6
20260505083001 73 0 1.0 5.0 0.00 0.00 0.00 83 1008.8
20260505082956 73 0 0.0 3.0 0.00 0.00 0.00 83 1008.7
20260505082225 73 0 1.0 5.0 0.00 0.00 0.00 83 1008.8
20260505081451 73 0 1.0 5.0 0.00 0.00 0.00 83 1008.9
20260505080952 73 0 1.0 5.0 0.00 0.00 0.00 83 1008.9
20260505080455 73 0 1.0 3.0 0.00 0.00 0.00 83 1009.0
20260505080450 73 0 1.0 4.0 0.00 0.00 0.00 83 1008.9
20260505075450 73 0 1.0 4.0 0.00 0.00 0.00 83 1009.0
20260505074951 73 0 2.0 6.0 0.00 0.00 0.00 83 1009.0
20260505074448 73 0 2.0 6.0 0.00 0.00 0.00 83 1009.0
20260505073951 73 0 2.0 6.0 0.00 0.00 0.00 83 1009.1
20260505073443 73 0 2.0 10.0 0.00 0.00 0.00 83 1009.1
20260505073215 73 0 2.0 10.0 0.00 0.00 0.00 83 1009.1
20260505072447 73 0 2.0 10.0 0.00 0.00 0.00 83 1009.1
20260505071943 73 0 2.0 10.0 0.00 0.00 0.00 82 1009.1
20260505071442 73 0 1.0 5.0 0.00 0.00 0.00 82 1009.2
20260505071214 73 0 1.0 4.0 0.00 0.00 0.00 82 1009.2
20260505070715 73 0 2.0 6.0 0.00 0.00 0.00 82 1009.4
20260505070213 73 0 1.0 6.0 0.00 0.00 0.00 82 1009.4
20260505065427 73 0 2.0 6.0 0.00 0.00 0.00 82 1009.5
20260505064931 73 0 1.0 5.0 0.00 0.00 0.00 81 1009.7
20260505064927 73 0 1.0 6.0 0.00 0.00 0.00 82 1009.5
20260505063921 73 0 2.0 5.0 0.00 0.00 0.00 81 1009.7
20260505063421 73 0 1.0 4.0 0.00 0.00 0.00 81 1009.9
20260505062920 73 0 1.0 5.0 0.00 0.00 0.00 81 1010.0
20260505062420 73 0 1.0 5.0 0.00 0.00 0.00 81 1010.1
20260505061919 73 0 0.0 4.0 0.00 0.00 0.00 81 1010.1
20260505061418 73 0 1.0 4.0 0.00 0.00 0.00 81 1010.3
20260505060918 73 0 2.0 5.0 0.00 0.00 0.00 80 1010.3
20260505060419 73 0 1.0 5.0 0.00 0.00 0.00 80 1010.1
20260505060149 73 0 1.0 3.0 0.00 0.00 0.00 81 1010.2
20260505055648 73 0 2.0 6.0 0.00 0.00 0.00 80 1010.2
20260505054917 73 0 2.0 6.0 0.00 0.00 0.00 80 1010.1
20260505054416 73 0 2.0 6.0 0.00 0.00 0.00 80 1010.1
20260505053916 73 0 2.0 6.0 0.00 0.00 0.00 80 1010.2
20260505053418 73 0 1.0 4.0 0.00 0.00 0.00 80 1010.4
20260505052915 73 0 1.0 4.0 0.00 0.00 0.00 80 1010.4
20260505052415 73 0 1.0 8.0 0.00 0.00 0.00 79 1010.6
20260505052143 73 0 1.0 8.0 0.00 0.00 0.00 79 1010.5
20260505051641 73 0 1.0 6.0 0.00 0.00 0.00 79 1010.5
20260505050909 73 0 1.0 5.0 0.00 0.00 0.00 79 1010.5
20260505050410 74 0 1.0 3.0 0.00 0.00 0.00 79 1010.5
20260505050141 74 0 1.0 3.0 0.00 0.00 0.00 79 1010.5
20260505041407 74 0 2.0 5.0 0.00 0.00 0.00 78 1010.5
20260505040905 74 0 1.0 4.0 0.00 0.00 0.00 78 1010.8
20260505040406 74 0 1.0 9.0 0.00 0.00 0.00 78 1010.9
20260505040137 74 0 1.0 9.0 0.00 0.00 0.00 78 1010.8
20260505035636 74 0 2.0 9.0 0.00 0.00 0.00 78 1010.7
20260505034903 75 0 2.0 9.0 0.00 0.00 0.00 78 1011.0
20260505034405 75 0 2.0 11.0 0.00 0.00 0.00 78 1011.0
20260505033903 75 0 2.0 11.0 0.00 0.00 0.00 78 1011.0
20260505033401 75 0 2.0 10.0 0.00 0.00 0.00 77 1011.0
20260505032900 75 0 2.0 10.0 0.00 0.00 0.00 77 1011.1
20260505032357 75 0 3.0 10.0 0.00 0.00 0.00 77 1011.0
20260505031855 75 0 2.0 8.0 0.00 0.00 0.00 77 1010.9
20260505031352 75 0 2.0 8.0 0.00 0.00 0.00 77 1010.9
20260505030851 75 0 3.0 8.0 0.00 0.00 0.00 77 1010.9
20260505030349 75 0 2.0 9.0 0.00 0.00 0.00 77 1010.9
20260505025850 75 0 3.0 9.0 0.00 0.00 0.00 77 1010.9
20260505025618 75 0 2.0 11.0 0.00 0.00 0.00 77 1011.0
20260505024846 75 0 2.0 11.0 0.00 0.00 0.00 77 1011.0
20260505024347 76 0 2.0 6.0 0.00 0.00 0.00 77 1011.0
20260505023847 76 0 2.0 6.0 0.00 0.00 0.00 76 1010.9
20260505023345 76 0 2.0 9.0 0.00 0.00 0.00 76 1010.9
20260505022848 76 0 2.0 10.0 0.00 0.00 0.00 76 1010.7
20260505022843 76 0 2.0 9.0 0.00 0.00 0.00 76 1010.8
20260505021839 76 0 3.0 10.0 0.00 0.00 0.00 76 1010.8
20260505021335 76 0 2.0 9.0 0.00 0.00 0.00 75 1010.8
20260505020836 76 0 2.0 9.0 0.00 0.00 0.00 75 1010.8
20260505020333 76 0 3.0 8.0 0.00 0.00 0.00 75 1010.7
20260505015835 76 0 3.0 8.0 0.00 0.00 0.00 75 1010.7
20260505015333 76 0 2.0 13.0 0.00 0.00 0.00 75 1010.6
20260505014836 76 0 1.0 13.0 0.00 0.00 0.00 74 1010.6
20260505014333 76 0 2.0 13.0 0.00 0.00 0.00 74 1010.6
20260505013835 77 0 3.0 13.0 0.00 0.00 0.00 74 1010.6
20260505013829 77 0 2.0 8.0 0.00 0.00 0.00 74 1010.6
20260505013100 77 0 2.0 9.0 0.00 0.00 0.00 74 1010.4
20260505012327 77 0 2.0 10.0 0.00 0.00 0.00 73 1010.3
20260505011829 77 0 2.0 10.0 0.00 0.00 0.00 73 1010.2
20260505011558 77 0 2.0 10.0 0.00 0.00 0.00 73 1010.4
20260505010826 77 0 2.0 10.0 0.00 0.00 0.00 72 1010.4
20260505010327 77 0 2.0 8.0 0.00 0.00 0.00 72 1010.3
20260505005819 78 0 2.0 8.0 0.00 0.00 0.00 72 1010.2
20260505005318 78 0 2.0 9.0 0.00 0.00 0.00 72 1010.1
20260505004819 78 0 2.0 9.0 0.00 0.00 0.00 72 1010.2
20260505004317 78 0 2.0 8.0 0.00 0.00 0.00 71 1010.1
20260505003816 78 0 3.0 8.0 0.00 0.00 0.00 71 1010.1
20260505003314 78 159 3.0 9.0 0.00 0.00 0.00 71 1010.0
20260505002809 78 177 3.0 10.0 0.00 0.00 0.00 71 1010.1
20260505002542 78 211 3.0 10.0 0.00 0.00 0.00 71 1010.1
20260505001809 78 93 3.0 10.0 0.00 0.00 0.00 71 1010.0
20260505001302 78 138 3.0 10.0 0.00 0.00 0.00 71 1010.0
20260505000803 78 175 3.0 9.0 0.00 0.00 0.00 71 1010.1
20260505000305 78 165 4.0 9.0 0.00 0.00 0.00 71 1010.1
20260504235801 78 132 4.0 12.0 0.00 0.00 0.00 71 1010.1
20260504235304 78 159 3.0 12.0 0.00 0.00 0.00 71 1010.2
20260504234801 78 150 3.0 12.0 0.00 0.00 0.00 71 1010.3
20260504234301 78 166 3.0 12.0 0.00 0.00 0.00 71 1010.4
20260504233759 78 172 3.0 9.0 0.00 0.00 0.00 70 1010.5
20260504233301 79 169 2.0 10.0 0.00 0.00 0.00 70 1010.5
20260504232759 79 129 2.0 10.0 0.00 0.00 0.00 71 1010.6
20260504232530 78 178 3.0 10.0 0.00 0.00 0.00 71 1010.6
20260504231758 78 198 3.0 10.0 0.00 0.00 0.00 71 1010.5
20260504231258 79 162 2.0 8.0 0.00 0.00 0.00 70 1010.7
20260504230755 79 200 2.0 10.0 0.00 0.00 0.00 70 1010.7
20260504230256 79 179 2.0 10.0 0.00 0.00 0.00 70 1010.8
20260504230026 79 190 2.0 9.0 0.00 0.00 0.00 70 1010.8
20260504225914 79 129 3.0 11.0 0.00 0.00 0.00 69 1010.9
20260504224753 79 163 2.0 11.0 0.00 0.00 0.00 69 1010.9
20260504224256 79 160 3.0 11.0 0.00 0.00 0.00 69 1010.8
20260504223755 79 238 3.0 11.0 0.00 0.00 0.00 69 1010.9
20260504223526 79 126 3.0 10.0 0.00 0.00 0.00 68 1010.9
20260504222753 79 86 3.0 13.0 0.00 0.00 0.00 68 1010.9
20260504222255 80 209 3.0 13.0 0.00 0.00 0.00 68 1011.0
20260504221751 80 66 3.0 10.0 0.00 0.00 0.00 68 1011.1
20260504221518 80 98 3.0 10.0 0.00 0.00 0.00 68 1011.1
20260504220746 79 187 2.0 9.0 0.00 0.00 0.00 68 1011.2
20260504220247 80 167 2.0 7.0 0.00 0.00 0.00 68 1011.3
20260504215736 80 206 2.0 7.0 0.00 0.00 0.00 68 1011.3
20260504215511 80 169 2.0 7.0 0.00 0.00 0.00 65 1011.3
20260504214739 80 157 2.0 7.0 0.00 0.00 0.00 66 1011.3
20260504214238 80 105 2.0 7.0 0.00 0.00 0.00 65 1011.4
20260504213737 80 209 2.0 7.0 0.00 0.00 0.00 67 1011.4
20260504213238 80 125 2.0 7.0 0.00 0.00 0.00 66 1011.5
20260504212737 80 82 2.0 8.0 0.00 0.00 0.00 65 1011.5
20260504212238 81 165 2.0 9.0 0.00 0.00 0.00 65 1011.6
20260504212010 81 138 2.0 9.0 0.00 0.00 0.00 64 1011.5
20260504211859 81 159 2.0 7.0 0.00 0.00 0.00 64 1011.6
20260504210739 81 144 2.0 10.0 0.00 0.00 0.00 63 1011.6
20260504210238 82 218 3.0 10.0 0.00 0.00 0.00 65 1011.7
20260504205738 81 128 2.0 7.0 0.00 0.00 0.00 65 1011.8
20260504205237 81 136 2.0 5.0 0.00 0.00 0.00 63 1012.0
20260504204736 82 208 3.0 6.0 0.00 0.00 0.00 64 1012.0
20260504204506 81 193 3.0 7.0 0.00 0.00 0.00 63 1012.0
20260504203733 82 156 3.0 7.0 0.00 0.00 0.00 62 1012.0
20260504203236 82 159 3.0 10.0 0.00 0.00 0.00 63 1012.0
20260504202734 82 141 2.0 10.0 0.00 0.00 0.00 63 1012.2
20260504202230 81 140 3.0 8.0 0.00 0.00 0.00 64 1012.2
20260504201729 81 132 3.0 8.0 0.00 0.00 0.00 63 1012.4
20260504201230 81 208 2.0 7.0 0.00 0.00 0.00 62 1012.5
20260504200729 80 128 2.0 10.0 0.00 0.00 0.00 63 1012.5
20260504200230 81 180 3.0 10.0 0.00 0.00 0.00 63 1012.7
20260504195724 81 152 3.0 10.0 0.00 0.00 0.00 64 1012.7
20260504195226 81 194 3.0 10.0 0.00 0.00 0.00 61 1012.8
20260504194724 82 200 3.0 10.0 0.00 0.00 0.00 62 1012.8
20260504194226 82 196 3.0 10.0 0.00 0.00 0.00 61 1012.8
20260504193722 81 93 3.0 10.0 0.00 0.00 0.00 62 1013.0
20260504193225 82 136 2.0 10.0 0.00 0.00 0.00 61 1012.9
20260504192950 82 138 3.0 10.0 0.00 0.00 0.00 61 1012.9
20260504192219 81 144 2.0 9.0 0.00 0.00 0.00 61 1013.1
20260504191718 82 138 3.0 8.0 0.00 0.00 0.00 59 1013.2
20260504191215 82 167 2.0 8.0 0.00 0.00 0.00 61 1013.1
20260504190719 81 171 3.0 8.0 0.00 0.00 0.00 62 1013.4
20260504190715 81 163 2.0 7.0 0.00 0.00 0.00 64 1013.2
20260504185715 80 163 3.0 8.0 0.00 0.00 0.00 62 1013.3
20260504185211 81 161 3.0 9.0 0.00 0.00 0.00 61 1013.4
20260504184710 81 207 3.0 9.0 0.00 0.00 0.00 61 1013.5
20260504184210 82 121 3.0 9.0 0.00 0.00 0.00 62 1013.6
20260504183940 81 182 3.0 9.0 0.00 0.00 0.00 60 1013.6
20260504183206 81 102 3.0 9.0 0.00 0.00 0.00 64 1013.5
20260504182709 81 195 2.0 10.0 0.00 0.00 0.00 62 1013.4
20260504182209 81 99 2.0 10.0 0.00 0.00 0.00 64 1013.6
20260504181708 81 140 3.0 10.0 0.00 0.00 0.00 62 1013.6
20260504181437 81 155 3.0 11.0 0.00 0.00 0.00 60 1013.7
20260504181324 81 165 2.0 11.0 0.00 0.00 0.00 62 1013.9
20260504180201 80 180 3.0 11.0 0.00 0.00 0.00 64 1014.0
20260504175700 80 146 3.0 11.0 0.00 0.00 0.00 63 1014.1
20260504175200 80 144 3.0 10.0 0.00 0.00 0.00 63 1014.1
20260504174701 79 128 2.0 8.0 0.00 0.00 0.00 64 1014.1
20260504174432 79 140 2.0 8.0 0.00 0.00 0.00 63 1014.3
20260504173658 80 165 3.0 8.0 0.00 0.00 0.00 62 1014.2
20260504173427 80 166 2.0 8.0 0.00 0.00 0.00 61 1014.2
20260504172656 80 150 2.0 6.0 0.00 0.00 0.00 62 1014.4
20260504172154 80 90 3.0 10.0 0.00 0.00 0.00 62 1014.5
20260504171658 80 152 3.0 10.0 0.00 0.00 0.00 64 1014.7
20260504171152 79 5 3.0 10.0 0.00 0.00 0.00 62 1014.7
20260504170652 79 134 3.0 10.0 0.00 0.00 0.00 65 1014.8
20260504170150 79 343 3.0 9.0 0.00 0.00 0.00 62 1014.8
20260504160142 77 160 2.0 11.0 0.00 0.00 0.00 68 1015.7
20260504151130 73 136 4.0 11.0 0.00 0.00 0.00 73 1015.7
20260504150628 73 121 3.0 8.0 0.00 0.00 0.00 73 1015.7
20260504150401 73 142 2.0 7.0 0.00 0.00 0.00 74 1015.6
20260504141125 67 152 2.0 10.0 0.00 0.00 0.00 80 1015.8
20260504140620 66 125 1.0 5.0 0.00 0.00 0.00 81 1015.7
20260504140123 65 145 2.0 7.0 0.00 0.00 0.00 82 1015.6
20260504140117 66 137 2.0 7.0 0.00 0.00 0.00 82 1015.6
20260504130611 61 98 1.0 5.0 0.00 0.00 0.00 83 1015.7
20260504130111 61 119 0.0 2.0 0.00 0.00 0.00 83 1015.6
20260504120107 60 154 0.0 0.0 0.00 0.00 0.00 80 1015.4
20260504110601 61 154 0.0 0.0 0.00 0.00 0.00 80 1015.3
20260504110104 61 154 0.0 1.0 0.00 0.00 0.00 80 1015.2
20260504100551 62 154 0.0 0.0 0.00 0.00 0.00 78 1015.5